This is the latest recevied weather packets stored in our database for station/object CE7LGA-10. If no packets are shown the sender has not sent any weather packets the latest 10 day(s).
| Time | Temp. | Humidity | Pressure | Rain* | Wind** | Luminosity | Snow |
|---|---|---|---|---|---|---|---|
| 1787824404 | 12.22° C | 70% | 994.2 hPa | - | - | - | - |
| 1787823504 | 12.78° C | 70% | 994.2 hPa | - | - | - | - |
| 1787822603 | 12.78° C | 69% | 994.1 hPa | - | - | - | - |
| 1787821703 | 12.78° C | 68% | 994.2 hPa | - | - | - | - |
| 1787820803 | 12.78° C | 68% | 994.2 hPa | - | - | - | - |
| 1787819903 | 12.78° C | 68% | 994.3 hPa | - | - | - | - |
| 1787819003 | 12.78° C | 68% | 994.4 hPa | - | - | - | - |
| 1787818103 | 12.78° C | 67% | 994.6 hPa | - | - | - | - |
| 1787817203 | 13.33° C | 67% | 994.4 hPa | - | - | - | - |
| 1787816303 | 13.33° C | 67% | 994.5 hPa | - | - | - | - |
| 1787815403 | 13.33° C | 67% | 994.4 hPa | - | - | - | - |
| 1787814503 | 13.33° C | 66% | 994.6 hPa | - | - | - | - |
| 1787813603 | 13.33° C | 66% | 994.7 hPa | - | - | - | - |
| 1787812702 | 13.89° C | 65% | 994.8 hPa | - | - | - | - |
| 1787811802 | 13.89° C | 65% | 994.8 hPa | - | - | - | - |
| 1787810902 | 13.89° C | 65% | 994.8 hPa | - | - | - | - |
| 1787810002 | 13.89° C | 65% | 994.8 hPa | - | - | - | - |
| 1787809102 | 13.89° C | 64% | 994.8 hPa | - | - | - | - |
| 1787808202 | 14.44° C | 64% | 995.1 hPa | - | - | - | - |
| 1787807302 | 15° C | 63% | 995.1 hPa | - | - | - | - |
| 1787806402 | 15° C | 63% | 995.1 hPa | - | - | - | - |
| 1787805506 | 15.56° C | 63% | 995 hPa | - | - | - | - |
| 1787804606 | 15.56° C | 62% | 995.1 hPa | - | - | - | - |
| 1787803705 | 16.11° C | 61% | 995.2 hPa | - | - | - | - |
| 1787802805 | 16.67° C | 60% | 995 hPa | - | - | - | - |
* Rain since midnight (hover to see other rain measurements)
** Current wind speed in m/s (hover to see current wind gust speed)